Regional Weather Roundup
Issued by NWS

Home | Current Version | Previous Version | Text Only | Print | Product List | Glossary On
Versions: 1 2 3 4 5 6 7 8 9 10 11 12 13 14 15 16 17 18 19 20 21 22 23 24 25 26 27
000
ASUS45 KREV 221610
RWRNV
NEVADA REGIONAL WEATHER ROUNDUP
NATIONAL WEATHER SERVICE RENO NV
800 AM PST WED NOV 22 2017

NOTE: "FAIR" INDICATES FEW OR NO CLOUDS BELOW 12,000 FEET WITH NO
SIGNIFICANT WEATHER AND/OR OBSTRUCTIONS TO VISIBILITY.

NVZ001-003-004-221700-
WESTERN NEVADA

CITY           SKY/WX    TMP DP  RH WIND       PRES   REMARKS
RENO           PTSUNNY   43  39  86 CALM      30.38R
CARSON CITY    FAIR      41  37  87 CALM      30.40R
MINDEN         FAIR      37  37 100 CALM      30.38S
SLIDE MTN        N/A     43  34  70 SW30        N/A
PYRAMID LAKE     N/A     50 N/A N/A CALM        N/A
FALLON         PTSUNNY   46  40  79 N5        30.36R
LOVELOCK       PTSUNNY   40  33  76 CALM      30.37R
HAWTHORNE      SUNNY     48  36  61 CALM      30.38R
$$

NVZ002-CAZ072-073-221700-
NORTHERN AND CENTRAL SIERRA

CITY           SKY/WX    TMP DP  RH WIND       PRES   REMARKS
S. LAKE TAHOE  FOG       35  34  96 CALM      30.44R VSB 1/4
TRUCKEE        FOG       30  30 100 CALM      30.44R VSB 1/4
SQUAW VLY 8000   N/A     46  32  57 S7          N/A
SUSANVILLE     CLEAR     37  37 100 CALM      30.37R
BLUE CANYON    CLEAR     60  40  47 SE5       30.38R
MAMMOTH LAKES  FAIR      33  31  92 N3        30.52R
$$

NVZ030-031-036-221700-
NORTHERN NEVADA

CITY           SKY/WX    TMP DP  RH WIND       PRES   REMARKS
ELKO           FOG       35  33  92 NE3       30.46R VSB<1/4
WINNEMUCCA     CLOUDY    45  41  86 E5        30.38R
$$

NVZ035-037-221700-
CENTRAL NEVADA

CITY           SKY/WX    TMP DP  RH WIND       PRES   REMARKS
ELY            SUNNY     35  30  82 S12       30.50R
EUREKA           N/A     40  32  73 S6        30.46R
$$

NVZ013-014-221700-
SOUTH CENTRAL NEVADA

CITY           SKY/WX    TMP DP  RH WIND       PRES   REMARKS
TONOPAH        SUNNY     46  32  58 NE7       30.45R
$$

NVZ017-020-022-221700-
SOUTHERN NEVADA

CITY           SKY/WX    TMP DP  RH WIND       PRES   REMARKS
LAS VEGAS      SUNNY     61  36  39 CALM      30.30R
N. LAS VEGAS   SUNNY     62  35  36 NE3       30.29R
NELLIS AFB     SUNNY     50  23  34 CALM      30.29R
HENDERSON      SUNNY     59  33  37 S6        30.32R
MERCURY        SUNNY     64  35  34 NE10      30.32R
$$




USA.gov is the U.S. government's official web portal to all federal, state and local government web resources and services.